• In Belarus
  • List of Countries
  • For 7 days
  • Water Temperature
  • Satellite Maps
  • Weather Map
  • Weather Widgets
  • user-avatar
    Login

    Hourly Weather Lapshino

    Today, 23 April, Monday

    Time Temperature Precipitation Wind Pressure Humidity
    00:00 -2°C° 0 mm 3 mps 746 mmHg 78%
    01:00 -4°C° 0 mm 3 mps 746 mmHg 79%
    02:00 -2°C° 0 mm 3 mps 746 mmHg 82%
    03:00 -2°C° 0 mm 3 mps 746 mmHg 81%
    04:00 -3°C° 0 mm 4 mps 747 mmHg 80%
    05:00 -3°C° 0 mm 4 mps 747 mmHg 80%
    06:00 -2°C° 0 mm 4 mps 747 mmHg 70%
    07:00 -1°C° 0 mm 4 mps 748 mmHg 60%
    08:00 +1°C° 0 mm 5 mps 748 mmHg 50%
    09:00 +1°C° 0 mm 5 mps 748 mmHg 47%
    10:00 +2°C° 0 mm 5 mps 748 mmHg 44%
    11:00 +3°C° 0 mm 5 mps 748 mmHg 41%
    12:00 +3°C° 0 mm 5 mps 748 mmHg 41%
    13:00 +5°C° 0 mm 5 mps 748 mmHg 41%
    14:00 +5°C° 0 mm 5 mps 748 mmHg 41%
    15:00 +5°C° 0 mm 4 mps 748 mmHg 43%
    16:00 +5°C° 0 mm 4 mps 748 mmHg 45%
    17:00 +4°C° 0 mm 4 mps 748 mmHg 47%
    18:00 +3°C° 0 mm 3 mps 749 mmHg 53%
    19:00 +3°C° 0 mm 2 mps 749 mmHg 59%
    20:00 +2°C° 0 mm 1 mps 749 mmHg 66%
    21:00 +1°C° 0 mm 1 mps 749 mmHg 69%
    22:00 +1°C° 0 mm 1 mps 749 mmHg 72%
    23:00 0°C° 0 mm 1 mps 749 mmHg 75%

    Tomorrow, 24 April, Tuesday

    Time Temperature Precipitation Wind Pressure Humidity
    00:00 0°C° 0 mm 1 mps 749 mmHg 75%
    01:00 0°C° 0 mm 1 mps 749 mmHg 76%
    02:00 -2°C° 0 mm 0 mps 749 mmHg 76%
    03:00 -1°C° 0 mm 0 mps 749 mmHg 74%
    04:00 -1°C° 0 mm 0 mps 749 mmHg 73%
    05:00 0°C° 0 mm 1 mps 750 mmHg 71%
    06:00 +2°C° 0 mm 1 mps 749 mmHg 64%
    07:00 +4°C° 0 mm 1 mps 749 mmHg 56%
    08:00 +5°C° 0 mm 1 mps 749 mmHg 49%
    09:00 +7°C° 0 mm 1 mps 749 mmHg 46%
    10:00 +7°C° 0 mm 2 mps 749 mmHg 42%
    11:00 +8°C° 0 mm 2 mps 748 mmHg 39%
    12:00 +9°C° 0 mm 2 mps 748 mmHg 38%
    13:00 +9°C° 0 mm 2 mps 747 mmHg 37%
    14:00 +10°C° 0 mm 2 mps 747 mmHg 37%
    15:00 +10°C° 0 mm 2 mps 747 mmHg 41%
    16:00 +9°C° 0 mm 2 mps 746 mmHg 45%
    17:00 +9°C° 0 mm 2 mps 746 mmHg 49%
    18:00 +8°C° 0.1 mm 2 mps 745 mmHg 54%
    19:00 +7°C° 0.1 mm 2 mps 745 mmHg 59%
    20:00 +6°C° 0.1 mm 2 mps 745 mmHg 63%
    21:00 +5°C° 0.1 mm 3 mps 745 mmHg 66%
    22:00 +5°C° 0.1 mm 3 mps 744 mmHg 68%
    23:00 +4°C° 0.1 mm 3 mps 744 mmHg 70%

    Day after tomorrow, 25 April, Wednesday

    Time Temperature Precipitation Wind Pressure Humidity
    00:00 +4°C° 0.3 mm 3 mps 743 mmHg 75%
    01:00 +4°C° 0.3 mm 3 mps 743 mmHg 79%
    02:00 +4°C° 0.3 mm 3 mps 742 mmHg 83%
    03:00 +4°C° 0.3 mm 3 mps 742 mmHg 86%
    04:00 +4°C° 0.3 mm 3 mps 742 mmHg 89%
    05:00 +4°C° 0.3 mm 3 mps 741 mmHg 92%
    06:00 +5°C° 0.1 mm 3 mps 741 mmHg 91%
    07:00 +5°C° 0.1 mm 3 mps 741 mmHg 91%
    08:00 +7°C° 0.1 mm 3 mps 741 mmHg 90%
    09:00 +8°C° 0.4 mm 3 mps 741 mmHg 89%
    10:00 +9°C° 0.4 mm 3 mps 741 mmHg 88%
    11:00 +9°C° 0.4 mm 3 mps 741 mmHg 87%
    12:00 +9°C° 0.5 mm 3 mps 740 mmHg 84%
    13:00 +10°C° 0.5 mm 3 mps 740 mmHg 82%
    14:00 +10°C° 0.5 mm 3 mps 740 mmHg 80%
    15:00 +10°C° 0.3 mm 3 mps 740 mmHg 78%
    16:00 +10°C° 0.3 mm 3 mps 740 mmHg 76%
    17:00 +11°C° 0.3 mm 3 mps 740 mmHg 73%
    18:00 +9°C° 0.2 mm 3 mps 740 mmHg 78%
    19:00 +8°C° 0.2 mm 3 mps 740 mmHg 83%
    20:00 +7°C° 0.2 mm 2 mps 740 mmHg 88%
    21:00 +6°C° 0 mm 2 mps 740 mmHg 90%
    22:00 +6°C° 0 mm 2 mps 740 mmHg 91%
    23:00 +5°C° 0 mm 2 mps 740 mmHg 93%

    26 April, Thursday

    Time Temperature Precipitation Wind Pressure Humidity
    00:00 +5°C° 0 mm 2 mps 740 mmHg 94%
    01:00 +4°C° 0 mm 2 mps 740 mmHg 94%
    02:00 +4°C° 0 mm 2 mps 740 mmHg 95%
    03:00 +4°C° 0 mm 2 mps 740 mmHg 95%
    04:00 +4°C° 0 mm 2 mps 740 mmHg 95%
    05:00 +4°C° 0 mm 2 mps 740 mmHg 95%
    06:00 +5°C° 0 mm 2 mps 739 mmHg 89%
    07:00 +7°C° 0 mm 2 mps 739 mmHg 84%
    08:00 +8°C° 0 mm 2 mps 739 mmHg 79%
    09:00 +9°C° 0 mm 2 mps 738 mmHg 76%
    10:00 +10°C° 0 mm 2 mps 738 mmHg 73%
    11:00 +10°C° 0 mm 3 mps 738 mmHg 70%
    12:00 +11°C° 0.2 mm 3 mps 738 mmHg 72%
    13:00 +11°C° 0.2 mm 3 mps 738 mmHg 74%
    14:00 +11°C° 0.2 mm 3 mps 738 mmHg 76%
    15:00 +10°C° 0.3 mm 4 mps 738 mmHg 77%
    16:00 +10°C° 0.3 mm 4 mps 738 mmHg 78%
    17:00 +10°C° 0.3 mm 4 mps 739 mmHg 79%
    18:00 +8°C° 0 mm 4 mps 739 mmHg 81%
    19:00 +7°C° 0 mm 4 mps 740 mmHg 84%
    20:00 +6°C° 0 mm 4 mps 741 mmHg 87%
    21:00 +6°C° 0 mm 4 mps 741 mmHg 88%
    22:00 +5°C° 0 mm 4 mps 742 mmHg 89%
    23:00 +5°C° 0 mm 3 mps 742 mmHg 89%

    27 April, Friday

    Time Temperature Precipitation Wind Pressure Humidity
    00:00 +4°C° 0 mm 3 mps 742 mmHg 90%
    01:00 +4°C° 0 mm 3 mps 743 mmHg 91%
    02:00 +4°C° 0 mm 3 mps 743 mmHg 92%
    03:00 +4°C° 0 mm 3 mps 744 mmHg 92%
    04:00 +3°C° 0 mm 3 mps 744 mmHg 92%
    05:00 +3°C° 0 mm 3 mps 744 mmHg 92%
    06:00 +5°C° 0 mm 3 mps 745 mmHg 85%
    07:00 +8°C° 0 mm 3 mps 745 mmHg 78%
    08:00 +9°C° 0 mm 3 mps 745 mmHg 72%
    09:00 +11°C° 0 mm 4 mps 745 mmHg 65%
    10:00 +12°C° 0 mm 4 mps 745 mmHg 58%
    11:00 +13°C° 0 mm 4 mps 745 mmHg 51%
    12:00 +14°C° 0 mm 4 mps 745 mmHg 49%
    13:00 +14°C° 0 mm 4 mps 745 mmHg 47%
    14:00 +14°C° 0 mm 3 mps 745 mmHg 45%
    15:00 +14°C° 0 mm 3 mps 745 mmHg 49%
    16:00 +14°C° 0 mm 2 mps 745 mmHg 54%
    17:00 +14°C° 0 mm 2 mps 745 mmHg 58%
    18:00 +13°C° 0.2 mm 2 mps 745 mmHg 65%
    19:00 +10°C° 0.2 mm 2 mps 745 mmHg 72%
    20:00 +9°C° 0.2 mm 2 mps 745 mmHg 79%
    21:00 +8°C° 0.6 mm 2 mps 745 mmHg 83%
    22:00 +8°C° 0.6 mm 2 mps 745 mmHg 87%
    23:00 +7°C° 0.6 mm 2 mps 745 mmHg 91%

    28 April, Saturday

    Time Temperature Precipitation Wind Pressure Humidity
    00:00 +7°C° 1.1 mm 2 mps 745 mmHg 92%
    01:00 +7°C° 1.1 mm 2 mps 745 mmHg 93%
    02:00 +6°C° 1.1 mm 2 mps 745 mmHg 94%
    03:00 +6°C° 0.5 mm 2 mps 746 mmHg 94%
    04:00 +6°C° 0.5 mm 2 mps 746 mmHg 93%
    05:00 +6°C° 0.5 mm 2 mps 747 mmHg 92%
    06:00 +7°C° 0 mm 3 mps 747 mmHg 86%
    07:00 +9°C° 0 mm 3 mps 748 mmHg 81%
    08:00 +10°C° 0 mm 3 mps 748 mmHg 75%
    09:00 +11°C° 0.2 mm 4 mps 749 mmHg 69%
    10:00 +12°C° 0.2 mm 4 mps 749 mmHg 63%
    11:00 +13°C° 0.2 mm 4 mps 749 mmHg 57%
    12:00 +13°C° 0.3 mm 5 mps 750 mmHg 56%
    13:00 +13°C° 0.3 mm 5 mps 750 mmHg 55%
    14:00 +13°C° 0.3 mm 5 mps 750 mmHg 53%
    15:00 +13°C° 0.1 mm 4 mps 751 mmHg 55%
    16:00 +13°C° 0.1 mm 4 mps 751 mmHg 56%
    17:00 +12°C° 0.1 mm 4 mps 751 mmHg 57%
    18:00 +11°C° 0 mm 3 mps 752 mmHg 63%
    19:00 +9°C° 0 mm 3 mps 752 mmHg 68%
    20:00 +8°C° 0 mm 3 mps 752 mmHg 74%
    21:00 +7°C° 0 mm 3 mps 753 mmHg 77%
    22:00 +7°C° 0 mm 2 mps 753 mmHg 79%
    23:00 +6°C° 0 mm 2 mps 753 mmHg 82%
    Show more